KUIPER-00066

Last updated on Thu Jul 03 2025 00:02:08 GMT+0000 (Coordinated Universal Time)

1 64526U 25134AC 25183.58335648 .00004755 00000+0 14297-3 0 9995 2 64526 51.8774 286.8834 0001985 99.0800 36.1464 15.36296688 1734
UTC large
Height (km)
Speed (km/s)
/
Latitude / Longitude
Inclination (degrees)
Orbital Period (minutes)
Azimuth
Elevation
Range (km)
Doppler Factor

Next 0 passes for location: London (51.5072 / 0.1276)

Sorry there are no passes over London.